Location: Newark
(49.9833°N, 3.7472°E)
Time: 01:03:12
(UTC+00:00)

N. Korean satellite - Pass Details

Date: 01 October 2019
Orbit: 455 x 508 km, 97.2° (Epoch: 20 October)

Event Time Altitude Azimuth Distance (km) Brightness Sun altitude
Rises 04:59:27 0° 25° (NNE) 2,489 10.6 -8.0°
Reaches altitude 10° 05:01:50 10° 41° (NE) 1,613 9.9 -7.7°
Maximum altitude 05:04:34 22° 94° (E) 1,073 9.6 -7.2°
Drops below altitude 10° 05:07:18 10° 146° (SE) 1,616 9.7 -6.8°
Sets 05:09:41 0° 162° (SSE) 2,495 10.4 -6.4°
